This is the latest recevied weather packets stored in our database for station/object N1IJV-10. If no packets are shown the sender has not sent any weather packets the latest 10 day(s).
| Time | Temp. | Humidity | Pressure | Rain* | Wind** | Luminosity | Snow |
|---|---|---|---|---|---|---|---|
| 1777840802 | 20° C | 44% | 1007 hPa | 0 mm | - | 515 W/m² | - |
| 1777840500 | 18.33° C | 46% | 1007.1 hPa | 0 mm | - | 614 W/m² | - |
| 1777840196 | 18.33° C | 45% | 1007.4 hPa | 0 mm | - | 138 W/m² | - |
| 1777839895 | 18.33° C | 45% | 1007.5 hPa | 0 mm | - | 170 W/m² | - |
| 1777839593 | 18.89° C | 44% | 1007.5 hPa | 0 mm | - | 488 W/m² | - |
| 1777839290 | 17.78° C | 46% | 1007.6 hPa | 0 mm | - | 544 W/m² | - |
| 1777838987 | 18.33° C | 45% | 1007.6 hPa | 0 mm | - | 174 W/m² | - |
| 1777838684 | 18.89° C | 44% | 1007.6 hPa | 0 mm | - | 202 W/m² | - |
| 1777838380 | 18.89° C | 44% | 1007.8 hPa | 0 mm | - | 377 W/m² | - |
| 1777838078 | 18.89° C | 44% | 1007.6 hPa | 0 mm | - | 717 W/m² | - |
| 1777837774 | 20° C | 45% | 1007.7 hPa | 0 mm | - | 734 W/m² | - |
| 1777837471 | 19.44° C | 48% | 1007.7 hPa | 0 mm | - | 741 W/m² | - |
| 1777837166 | 18.89° C | 48% | 1007.9 hPa | 0 mm | - | 676 W/m² | - |
| 1777836862 | 18.89° C | 51% | 1007.9 hPa | 0 mm | - | 614 W/m² | - |
| 1777836558 | 18.33° C | 52% | 1008.1 hPa | 0 mm | - | 565 W/m² | - |
| 1777836255 | 17.78° C | 52% | 1008.2 hPa | 0 mm | - | 547 W/m² | - |
| 1777835950 | 17.78° C | 52% | 1008.2 hPa | 0 mm | - | 574 W/m² | - |
| 1777835648 | 17.22° C | 55% | 1008.1 hPa | 0 mm | - | 634 W/m² | - |
| 1777835344 | 17.22° C | 54% | 1008.4 hPa | 0 mm | - | 690 W/m² | - |
| 1777835042 | 16.67° C | 59% | 1008.3 hPa | 0 mm | - | 708 W/m² | - |
| 1777834738 | 16.67° C | 63% | 1008.4 hPa | 0 mm | - | 672 W/m² | - |
| 1777834435 | 16.11° C | 62% | 1008.2 hPa | 0 mm | - | 634 W/m² | - |
| 1777834134 | 16.11° C | 61% | 1008.8 hPa | 0 mm | - | 674 W/m² | - |
| 1777833830 | 15.56° C | 61% | 1008.7 hPa | 0 mm | - | 681 W/m² | - |
| 1777833527 | 15.56° C | 63% | 1008.8 hPa | 0 mm | - | 668 W/m² | - |
* Rain latest hour (hover to see other rain measurements)
** Current wind speed in m/s (hover to see current wind gust speed)